Hourly Data Report for October 21, 2016

All times are specified in Local Standard Time (LST). Add 1 hour to adjust for Daylight Saving Time where and when it is observed.

ARVIAT A
NUNAVUT

61°05'38.000" N
94°04'18.000" W
10.40 m
2300427
71174
YEK

Download Data

Hourly Data (October 2016)
Hourly Data Report for October 21, 2016
Temp Definition
°C
Dew Point Temp Definition
°C
Rel Hum Definition
%
Wind Dir Definition
10's deg

Wind Spd Definition
km/h
Visibility Definition
km
Stn Press Definition
kPa
Hmdx Definition


Wind Chill Definition


Weather Definition


TIME
00:00 Legend Double Dagger -0.2 -1.6 90 21 26 16.1 101.25   -6 LegendNANA
01:00 Legend Double Dagger -0.1 -1.7 89 21 26 16.1 101.22   -6 LegendNANA
02:00 Legend Double Dagger -0.5 -1.6 92 21 21 16.1 101.18   -6 LegendNANA
03:00 Legend Double Dagger -0.5 -1.5 93 22 24 16.1 101.16   -6 LegendNANA
04:00 Legend Double Dagger -0.5 -1.4 94 22 21 16.1 101.15   -6 LegendNANA
05:00 Legend Double Dagger -0.5 -1.2 95 23 18 16.1 101.11   -6 LegendNANA
06:00 Legend Double Dagger -0.3 -1.0 95 23 17 16.1 101.09   -5 LegendNANA
07:00 Legend Double Dagger -0.3 -1.0 95 22 13 16.1 101.07   -4 LegendNANA
08:00 Legend Double Dagger -0.5 -1.1 96 22 11 16.1 101.06   -4 LegendNANA
09:00 Legend Double Dagger -0.3 -1.0 95 22 11 16.1 101.03   -4 LegendNANA
10:00 Legend Double Dagger -0.2 -0.9 95 20 17 16.1 101.05   -5 LegendNANA
11:00 Legend Double Dagger 0.0 -0.9 94 20 17 16.1 101.06   -5 LegendNANA
12:00 Legend Double Dagger 0.3 -1.1 91 20 15 16.1 101.06     LegendNANA
13:00 Legend Double Dagger 0.3 -0.9 92 19 17 16.1 101.05     LegendNANA
14:00 Legend Double Dagger 0.4 -1.7 86 18 17 16.1 101.00     LegendNANA
15:00 Legend Double Dagger 0.3 -1.7 87 20 13 16.1 101.00     LegendNANA
16:00 Legend Double Dagger 0.2 -2.0 86 17 8 16.1 100.99     LegendNANA
17:00 Legend Double Dagger -0.2 -0.8 96 9 9 14.5 100.97   -3 Snow
18:00 Legend Double Dagger 0.1 -0.8 94 15 13 16.1 100.97     LegendNANA
19:00 Legend Double Dagger 0.1 -0.3 97 12 11 16.1 100.98     Rain
20:00 Legend Double Dagger 0.6 -0.6 92 13 15 16.1 100.96     LegendNANA
21:00 Legend Double Dagger 1.0 0.4 96 12 17 16.1 100.93     LegendNANA
22:00 Legend Double Dagger 1.3 0.4 94 12 22 16.1 100.90     LegendNANA
23:00 Legend Double Dagger 1.5 0.9 96 10 18 16.1 100.87     LegendNANA

Notes on Data Quality.

Legend

  • E = Estimated
  • M = Missing
  • NA = Not Available
  • ‡ = Partner data that is not subject to review by the National Climate Archives
Date modified: